Tracking 27122 objects as of 26-Mar-2023
HD Live streaming from Space Station
objects crossing your sky now

STARLINK-2500

Track STARLINK-2500 now!
10-day predictions
STARLINK-2500 is classified as:


NORAD ID: 48485
Int'l Code: 2021-040BK
Perigee: 553.4 km
Apogee: 554.6 km
Inclination: 53.1 °
Period: 95.6 minutes
Semi major axis: 6924 km
RCS: Unknown
Launch date: May 9, 2021
Source: United States (US)
Launch site: AIR FORCE EASTERN TEST RANGE (AFETR)
Your satellite tracking list
Your tracking list is empty




NASA's NSSDC Master Catalog

Two Line Element Set (TLE):
1 48485U 21040BK  23084.23493178  .00040429  00000-0  27091-2 0  9990
2 48485  53.0533  11.9637 0000905  60.2962 299.8117 15.06515609103498
Source of the keplerian elements: AFSPC